sat.trackr.live / text

‹ back to catalog

STARLINK-2406

NORAD 47821 · 2021-018AL

PAYLOAD ACTIVE UNKNOWN

§ Identity

Operator
Country
US
Launch date
2021-03-11
Launch site
AFETR
Launch vehicle
Mass (kg)
RCS (m²)

Purposes: comms

External: N2YO · Heavens-Above · Gunter

§ Orbital elements

Epoch: 2026-09-14T19:29:01.631616Z

Period
94.01 min
Inclination
53.1595°
Eccentricity
0.0001281
Mean motion
15.31700257 rev/d
Perigee alt
469.9 km
Apogee alt
471.6 km
Semi-major
6,848.9 km
B*
3.0705e-5
RAAN
82.7841°
Arg perigee
102.7740°
Mean anomaly
257.3405°
Rev number
30,570

§ Raw data

STARLINK-24061 47821U 21018AL  26257.81182444  .00000588  00000+0  30705-4 0  99972 47821  53.1595  82.7841 0001281 102.7740 257.3405 15.31700257305707

JSON: /api/v1/satellites/47821 · /tle

For live sub-satellite position, see the globe view (requires WebGL).

§ Visibility from observer

Set your observer location to see the next 7 days of passes ≥ 10°. The values pass through the URL so the page stays shareable.

No JS? Fill the form by hand. The geolocation button needs JavaScript.